Cross City, FL

4:11 AM EST on November 21, 2019 (GMT -0500)
Cross City

Weather History for KCTY - September, 2019

Change the Weather History Date:

Thursday, September 19, 2019

  Actual Average Record
Temperature  
Mean Temperature 79 °F 78 °F  
Max Temperature 87 °F 88 °F 94 °F (2018)
Min Temperature 70 °F 68 °F 60 °F (2003)
Degree Days  
Heating Degree Days 0    
Month to date heating degree days 0  
Since 1 July heating degree days 0  
Cooling Degree Days 14    
Month to date cooling degree days 339  
Year to date cooling degree days 2597  
Growing Degree Days 29 (Base 50)    
Moisture  
Dew Point 67 °F    
Average Humidity 74    
Maximum Humidity 94    
Minimum Humidity 39    
Precipitation  
Precipitation 0.00 in 0.13 in 2.01 in (2011)
Month to date precipitation 0.67 3.22  
Year to date precipitation 47.07 38.59  
Sea Level Pressure  
Sea Level Pressure 30.06 in    
Wind  
Wind Speed 8 mph (NE)    
Max Wind Speed 15 mph    
Max Gust Speed 23 mph    
Visibility 10 miles    
Events Rain    
T = Trace of Precipitation, MM = Missing Value Source: NWS Daily Summary

Daily Weather History Graph

Daily Weather History Graph

Search for Another Location

Airport or City:

Astronomy

Sep. 19, 2019 Rise Set
Actual Time 7:19 AM EDT 7:32 PM EDT
Civil Twilight 6:55 AM EDT 7:56 PM EDT
Nautical Twilight 6:27 AM EDT 8:24 PM EDT
Astronomical Twilight 5:59 AM EDT 8:52 PM EDT
Moon 11:03 PM EDT (9/19) 12:00 PM EDT (9/19)
Length of Visible Light 13h 01m
Length of Day
12h 13m
Waning Gibbous, 74% of the Moon is Illuminated
Sep 19
Waning Gibbous
Sep 21
Last Quarter
Sep 28
New
Oct 5
First Quarter
Oct 13
Full

Hourly Weather History & Observations

Time (EDT) Temp. Heat Index Dew Point Humidity Pressure Visibility Wind Dir Wind Speed Gust Speed Precip Events Conditions
12:15 AM 74.5 °F - 72.3 °F 93% 30.03 in - ENE 5.8 mph - N/A   Unknown
12:35 AM 74.5 °F - 72.3 °F 93% 30.03 in 10.0 mi ENE 6.9 mph - N/A   Clear
12:55 AM 74.3 °F - 72.1 °F 93% 30.03 in 10.0 mi ENE 6.9 mph - N/A   Clear
1:15 AM 74.1 °F - 72.0 °F 93% 30.04 in 10.0 mi ENE 6.9 mph - N/A   Scattered Clouds
1:35 AM 73.9 °F - 71.8 °F 93% 30.04 in 10.0 mi East 6.9 mph - N/A   Clear
1:55 AM 73.8 °F - 71.4 °F 92% 30.03 in 10.0 mi ENE 6.9 mph - N/A   Clear
2:15 AM 73.4 °F - 70.9 °F 92% 30.03 in 10.0 mi ENE 8.1 mph - N/A   Clear
2:35 AM 73.2 °F - 70.7 °F 92% 30.03 in 10.0 mi ENE 5.8 mph - N/A   Clear
2:55 AM 73.0 °F - 70.3 °F 91% 30.02 in 10.0 mi ENE 6.9 mph - N/A   Clear
3:15 AM 72.9 °F - 70.2 °F 91% 30.02 in 10.0 mi ENE 5.8 mph - N/A   Clear
3:35 AM 72.5 °F - 69.8 °F 91% 30.02 in 10.0 mi ENE 3.5 mph - N/A   Clear
3:55 AM 72.1 °F - 69.6 °F 92% 30.02 in 10.0 mi ENE 4.6 mph - N/A   Clear
4:15 AM 71.8 °F - 69.6 °F 93% 30.02 in 10.0 mi NE 3.5 mph - N/A   Clear
4:35 AM 71.4 °F - 69.4 °F 93% 30.02 in 10.0 mi NE 3.5 mph - N/A   Clear
4:55 AM 71.2 °F - 69.3 °F 93% 30.02 in 10.0 mi NE 4.6 mph - N/A   Clear
5:15 AM 71.1 °F - 68.9 °F 93% 30.02 in 10.0 mi NE 5.8 mph - N/A   Clear
5:35 AM 70.9 °F - 69.1 °F 94% 30.03 in 10.0 mi NE 4.6 mph - N/A   Scattered Clouds
5:55 AM 70.9 °F - 68.9 °F 93% 30.03 in 10.0 mi NE 5.8 mph - N/A   Scattered Clouds
6:15 AM 70.7 °F - 68.5 °F 93% 30.04 in 10.0 mi NE 5.8 mph - N/A   Scattered Clouds
6:35 AM 70.3 °F - 68.4 °F 93% 30.05 in 10.0 mi NNE 4.6 mph - N/A   Scattered Clouds
6:55 AM 70.0 °F - 68.2 °F 94% 30.06 in 10.0 mi NE 4.6 mph - N/A   Clear
7:15 AM 70.0 °F - 68.2 °F 94% 30.06 in 10.0 mi NE 5.8 mph - N/A   Scattered Clouds
7:35 AM 70.3 °F - 67.8 °F 92% 30.07 in 10.0 mi NE 6.9 mph - N/A   Mostly Cloudy
7:55 AM 70.7 °F - 67.8 °F 91% 30.07 in 10.0 mi NE 5.8 mph - N/A   Mostly Cloudy
8:15 AM 71.6 °F - 67.8 °F 88% 30.07 in 10.0 mi NE 5.8 mph - N/A   Overcast
8:35 AM 72.9 °F - 67.8 °F 84% 30.08 in 10.0 mi NE 4.6 mph - N/A   Mostly Cloudy
8:55 AM 72.7 °F - 68.2 °F 86% 30.08 in 10.0 mi NE 6.9 mph - N/A   Scattered Clouds
9:15 AM 73.4 °F - 68.0 °F 83% 30.09 in 10.0 mi NE 5.8 mph - N/A   Mostly Cloudy
9:35 AM 74.1 °F - 67.8 °F 81% 30.09 in 10.0 mi NE 9.2 mph - N/A   Overcast
9:55 AM 75.2 °F - 68.2 °F 79% 30.09 in 10.0 mi NNE 6.9 mph - N/A   Overcast
10:15 AM 75.0 °F - 68.0 °F 79% 30.10 in 10.0 mi NE 8.1 mph - N/A   Overcast
10:35 AM 75.7 °F - 67.8 °F 76% 30.10 in 10.0 mi NE 9.2 mph - N/A   Overcast
10:55 AM 78.1 °F - 68.5 °F 72% 30.10 in 10.0 mi NE 9.2 mph - N/A   Mostly Cloudy
11:15 AM 79.7 °F - 68.0 °F 67% 30.10 in 10.0 mi NE 10.4 mph - N/A   Scattered Clouds
11:35 AM 80.8 °F 83.5 °F 67.8 °F 65% 30.10 in 10.0 mi NE 10.4 mph 16.1 mph N/A   Clear
11:55 AM 83.3 °F 86.4 °F 68.2 °F 60% 30.09 in 10.0 mi NE 9.2 mph - N/A   Scattered Clouds
12:15 PM 82.6 °F 84.9 °F 66.4 °F 58% 30.09 in 10.0 mi NE 12.7 mph 17.3 mph N/A   Mostly Cloudy
12:35 PM 82.6 °F 84.7 °F 65.8 °F 57% 30.08 in 10.0 mi NE 10.4 mph - N/A   Mostly Cloudy
12:55 PM 84.4 °F 86.8 °F 66.6 °F 55% 30.07 in 10.0 mi NE 15.0 mph - N/A   Mostly Cloudy
1:15 PM 84.2 °F 85.6 °F 64.4 °F 51% 30.07 in 10.0 mi NE 10.4 mph - N/A   Scattered Clouds
1:35 PM 86.4 °F 88.7 °F 66.0 °F 51% 30.06 in 10.0 mi ENE 8.1 mph 19.6 mph N/A   Clear
1:55 PM 86.4 °F 87.8 °F 64.4 °F 48% 30.06 in 10.0 mi ENE 12.7 mph 23.0 mph N/A   Scattered Clouds
2:15 PM 86.2 °F 87.3 °F 63.5 °F 47% 30.05 in 10.0 mi ENE 9.2 mph - N/A   Scattered Clouds
2:35 PM 86.5 °F 87.6 °F 63.3 °F 46% 30.05 in 10.0 mi NE 9.2 mph 19.6 mph N/A   Clear
2:55 PM 87.1 °F 88.3 °F 64.0 °F 46% 30.04 in 10.0 mi NE 10.4 mph - N/A   Scattered Clouds
3:15 PM 87.1 °F 87.2 °F 61.3 °F 42% 30.04 in 10.0 mi NE 9.2 mph 19.6 mph N/A   Scattered Clouds
3:35 PM 86.9 °F 87.2 °F 62.2 °F 43% 30.03 in 10.0 mi NNE 10.4 mph 18.4 mph N/A   Scattered Clouds
3:55 PM 87.1 °F 87.2 °F 61.7 °F 42% 30.02 in 10.0 mi NE 10.4 mph 17.3 mph N/A   Scattered Clouds
4:15 PM 87.3 °F 87.5 °F 61.5 °F 42% 30.02 in 10.0 mi ENE 8.1 mph 18.4 mph N/A   Scattered Clouds
4:35 PM 87.1 °F 87.0 °F 61.0 °F 41% 30.02 in 10.0 mi NE 13.8 mph - N/A   Scattered Clouds
4:55 PM 87.1 °F 87.2 °F 61.5 °F 42% 30.03 in 10.0 mi NE 8.1 mph - N/A   Clear
5:15 PM 86.2 °F 86.3 °F 61.5 °F 43% 30.03 in 10.0 mi ENE 8.1 mph 21.9 mph N/A   Scattered Clouds
5:35 PM 84.7 °F 85.2 °F 62.1 °F 46% 30.03 in 10.0 mi ENE 9.2 mph 18.4 mph N/A   Scattered Clouds
5:55 PM 85.6 °F 86.1 °F 62.2 °F 45% 30.03 in 10.0 mi ENE 10.4 mph 19.6 mph N/A   Scattered Clouds
6:15 PM 84.7 °F 86.1 °F 64.0 °F 50% 30.03 in 10.0 mi ENE 12.7 mph - N/A   Mostly Cloudy
6:35 PM 81.7 °F 83.2 °F 64.2 °F 55% 30.04 in 10.0 mi East 9.2 mph - N/A   Mostly Cloudy
6:55 PM 80.8 °F 82.6 °F 65.5 °F 59% 30.05 in 10.0 mi ENE 8.1 mph - N/A   Overcast
7:15 PM 79.3 °F - 64.9 °F 61% 30.06 in 10.0 mi ENE 10.4 mph 21.9 mph N/A   Mostly Cloudy
7:35 PM 78.3 °F - 65.5 °F 65% 30.07 in 10.0 mi ENE 8.1 mph - N/A   Overcast
7:55 PM 77.7 °F - 65.8 °F 67% 30.08 in 10.0 mi ENE 10.4 mph 18.4 mph N/A   Overcast
8:15 PM 77.2 °F - 65.1 °F 66% 30.09 in 10.0 mi ENE 11.5 mph - N/A   Overcast
8:35 PM 76.6 °F - 65.1 °F 67% 30.09 in 10.0 mi ENE 10.4 mph 17.3 mph N/A   Overcast
8:55 PM 76.1 °F - 65.8 °F 70% 30.11 in 10.0 mi East 11.5 mph 19.6 mph N/A   Overcast
9:15 PM 71.6 °F - 68.0 °F 88% 30.12 in 5.0 mi NE 10.4 mph - N/A Rain Light Rain
9:35 PM 70.5 °F - 68.5 °F 93% 30.12 in 10.0 mi NE 9.2 mph - N/A   Overcast
9:55 PM 70.7 °F - 68.2 °F 92% 30.13 in 10.0 mi NE 8.1 mph - N/A   Mostly Cloudy
10:15 PM 70.7 °F - 68.4 °F 92% 30.13 in 10.0 mi NE 6.9 mph - N/A   Scattered Clouds
10:35 PM 71.1 °F - 68.4 °F 91% 30.13 in 7.0 mi NE 6.9 mph - N/A   Mostly Cloudy
10:55 PM 70.9 °F - 68.2 °F 91% 30.13 in 10.0 mi NE 8.1 mph - N/A   Mostly Cloudy
11:15 PM 71.4 °F - 68.0 °F 89% 30.13 in 10.0 mi NE 8.1 mph - N/A   Overcast